Find Kuiper-00605

NORAD ID: 69289 Int'l Des: 2026-118 Owner: KUIP Country: US Constellation: amazon-leo operational
LEOCIRCULAR

Current View

Loading 3D Globe...

About Kuiper-00605

Description loading...

Upcoming Passes

Passes for default location (London). Set your location on the main map for personalized predictions.

Altitude History

Loading altitude history...

Two-Line Element Set

1 69289U 26118Y 26159.16672454 .00021847 00000-0 59206-3 0 9997
2 69289 51.8694 96.8704 0004799 120.2893 292.2516 15.37570608 2154
Epoch: Jun 8, 2026 • Age: 4 hours

Current Status

Altitude 473.4 km
Velocity 7.63 km/s
Sub-Earth Point -49.58°S, 10.96°E
Launch Date May 29, 2026
Age 9 days
Type internet

Technical Details

Classification Payload
Mass 490.00 kg
Dry Mass 490.00 kg
Total Mass 490.00 kg
Length 1.80 m
Diameter 0.70 m
Span 5.00 m
Shape Box + 2 pan
Manufacturer KUIP
Bus Type Kuiper
Phase Status In Orbit
Owner/State KUIP/US

Most Searched